User: anonymous   Login
Location: Onan Observatory
(44.8103°N, 93.9397°W)
Time: 22:38:26
(UTC-05:00)
Language:

Iridium 90 - Orbit

View from above orbital plane
View from above orbital plane
View from above satellite
View from above satellite

Ground track
Ground track

The orbit data is extracted from the following two-line orbital elements,

1 27373U 02005B   17175.61082429 -.00000050 +00000-0 -20871-4 0  9991
2 27373 086.4456 346.9695 0002209 083.6209 276.5243 14.42948288812358
Epoch (UTC): 24 June 2017 14:39:35
Eccentricity: 0.0002209
inclination: 86.4456°
perigee height: 747 km
apogee height: 750 km
right ascension of ascending node: 346.9695°
argument of perigee: 83.6209°
revolutions per day: 14.42948288
mean anomaly at epoch: 276.5243°
orbit number at epoch: 81235

The dashed part of the orbit path shows where the satellite is in the earth's shadow,  

DLR